STARLINK-11573, 62989

Orbit data source: Space-Track

STARLINK-11573, 62989 is a payload satellite owned by SpaceX/Seattle (US) in LEO that was launched on Tue, 11 Feb 2025 UTC via an FALCON 9 launch vehicle from the Air Force Eastern Test Range (AFETR). Payload-class satellites include a variety of spacecraft equipped with specific instruments for various scientific and technological missions. These include communications satellites like Starlink; space stations such as the ISS; scientific satellites like the Hubble; Earth observation satellites from companies like Planet Labs, Umbra, and HawkEye 360; GPS; miniature CubeSats for education and research; and military/defense satellites.

Loading next visibility...
Identifier
62989, 2025-031J
Orbit
LEO
Country
Flag of USUS
Related business
Manufacturer
SpaceX/Seattle
Mission
Operational Commercial Communications
Bus & Motor
STARLINK V2MD, Unknown motor
Mass
960 kg wet, ~910 kg dry
Launch date (UTC)
2025-02-11 (1 year ago)
Launch vehicle
FALCON 9
Launch site
Air Force Eastern Test Range (AFETR)
Object type
Payload
Rocket body
Debris
Shape & HBR
Box + 2 Pan, 18.1 m
Radar Cross Section
36.964 m², Large (>1 m²)

Expand to show TLE details & history
Last TLE update: 17 hours ago

TLE from 17 hours ago
0 STARLINK-11573
1 62989U 25031J   26171.14281455  .00237600  00000-0  17987-2 0  9994
2 62989  43.0009 104.0825 0001651 260.2967  99.7714 15.70893779 78825
Epoch: 2026-06-20T03:25Z
TLE epoch observation values (Epoch: 2026-06-20T03:25:39.177Z)
Latitude
-0.00002°
Longitude
144.30757°
Altitude
356.301 km
Speed
7.697 km/s
True Right ascension
06h 56m 19s
True Declination
0° 00' 00"
Sunlit
Object was in daylight at epoch
Visualization orbit readout
Latitude
Unknown
Longitude
Unknown
Altitude
Unknown
Speed
Unknown
Apparent Right ascension
Unknown
Apparent Declination
Unknown
Sunlit
N/A
Visualization observer readout
Local Sidereal Time
07:14:13
Azimuth
Unknown
Elevation
Unknown
Doppler factor
Unknown
Orbital elements
Apogee altitude
359.435 km
Perigee altitude
357.211 km
Semi-major axis
6,736.46 km
Eccentricity
0.00017
Inclination
43.0009°
RAAN
104.0825°
Arg. of periapsis
260.2967°
True anomaly
99.79004°
Mean anomaly
99.7714°
Eccentric anomaly
99.78072°
Mean motion
3.92551 °/min
Orbital period
91.71 mins
BSTAR
0.0017987
Loading maneuver chart data...
Computing Atmospheric mass density...
Loading historical data...
Loading historical data...
Loading historical data...
Loading historical data...
Loading historical data...
Loading historical data...
Loading historical data...

Documentation

Showing up to 5 results
|